KI5R Weather Reports


time (UTC)temp
C
wind
direction
speed
KPH
gust
KPH
rain 1hr
cm
rain 24hr
cm
rain mn
cm
humidity
%
barometer
mb
20211026184556 25 196 6.4 16.1 0.00 0.00 0.00 80 1008.1
20211026180038 25 198 8.0 17.7 0.00 0.00 0.00 84 1009.3
20211026175023 25 181 8.0 19.3 0.00 0.00 0.00 84 1009.6
20211026172520 24 196 6.4 16.1 0.00 0.00 0.00 86 1010.3
20211026170006 23 165 4.8 12.9 0.00 0.00 0.00 89 1010.8
20211026165017 23 151 1.6 12.9 0.00 0.00 0.00 90 1011.0
20211026162511 22 153 8.0 14.5 0.00 0.00 0.00 93 1011.1
20211026161657 22 223 6.4 16.1 0.00 0.00 0.00 94 1011.4
20211026160006 22 145 6.4 14.5 0.00 0.00 0.00 95 1011.4
20211026155025 21 152 6.4 16.1 0.00 0.00 0.00 96 1011.7
20211026153513 21 190 6.4 14.5 0.00 0.00 0.00 97 1011.9
20211026151020 21 165 8.0 20.9 0.00 0.00 0.00 97 1012.2
20211026144534 21 191 4.8 16.1 0.00 0.00 0.00 98 1012.3
20211026143036 21 142 3.2 12.9 0.00 0.00 0.00 98 1012.3
20211026142023 21 177 1.6 12.9 0.00 0.00 0.00 98 1012.3
20211026140512 21 179 4.8 11.3 0.00 0.00 0.00 99 1012.1
20211026134035 20 167 3.2 9.7 0.00 0.00 0.00 98 1012.0
20211026132510 19 139 1.6 6.4 0.00 0.00 0.00 97 1011.8
20211026131011 19 126 0.0 4.8 0.00 0.00 0.00 96 1011.7
20211026124003 19 129 0.0 4.8 0.00 0.00 0.00 96 1011.9
20211026121535 18 154 1.6 8.0 0.00 0.00 0.00 95 1012.0
20211026121100 18 153 0.0 8.0 0.00 0.00 0.00 95 1012.1
20211026120522 18 80 0.0 3.2 0.00 0.00 0.00 95 1012.1
20211026120100 18 81 0.0 4.8 0.00 0.00 0.00 95 1012.1
20211026115514 18 79 0.0 4.8 0.00 0.00 0.00 94 1012.1
20211026115014 18 76 0.0 4.8 0.00 0.00 0.00 94 1012.1
20211026114519 18 76 0.0 3.2 0.00 0.00 0.00 93 1012.1
20211026114007 18 76 0.0 3.2 0.00 0.00 0.00 92 1012.0
20211026113508 18 76 0.0 1.6 0.00 0.00 0.00 92 1012.0
20211026113003 18 76 0.0 1.6 0.00 0.00 0.00 91 1012.0
20211026095029 18 76 0.0 3.2 0.00 0.00 0.00 86 1011.7
20211026094026 18 76 0.0 0.0 0.00 0.00 0.00 84 1011.7
20211026093524 18 76 0.0 0.0 0.00 0.00 0.00 84 1011.7
20211026093111 18 76 0.0 0.0 0.00 0.00 0.00 84 1011.7
20211026092544 18 76 0.0 0.0 0.00 0.00 0.00 84 1011.7
20211026092029 18 76 0.0 0.0 0.00 0.00 0.00 85 1011.8
20211026091528 19 76 0.0 0.0 0.00 0.00 0.00 85 1011.8
20211026091018 19 76 0.0 0.0 0.00 0.00 0.00 85 1011.9
20211026090516 19 76 0.0 0.0 0.00 0.00 0.00 84 1011.8
20211026090135 19 76 0.0 0.0 0.00 0.00 0.00 84 1011.8
20211026085516 19 76 0.0 1.6 0.00 0.00 0.00 84 1011.9
20211026085018 19 76 0.0 3.2 0.00 0.00 0.00 84 1011.9
20211026084539 19 76 0.0 3.2 0.00 0.00 0.00 84 1012.0
20211026084053 19 76 0.0 1.6 0.00 0.00 0.00 84 1012.0
20211026083520 19 76 0.0 0.0 0.00 0.00 0.00 83 1012.0
20211026083011 19 76 0.0 0.0 0.00 0.00 0.00 83 1012.1
20211026081010 19 76 0.0 0.0 0.00 0.00 0.00 81 1012.1
20211026080003 20 76 0.0 0.0 0.00 0.00 0.00 81 1012.2
20211026073001 20 76 0.0 1.6 0.00 0.00 0.00 77 1012.5
20211026072501 20 76 0.0 0.0 0.00 0.00 0.00 75 1012.5
20211026041630 21 51 0.0 1.6 0.00 0.00 0.00 62 1013.4
20211026041032 21 51 0.0 1.6 0.00 0.00 0.00 62 1013.5
20211026040528 21 51 0.0 1.6 0.00 0.00 0.00 62 1013.5
20211026040117 21 51 0.0 1.6 0.00 0.00 0.00 62 1013.5
20211026035511 21 51 0.0 1.6 0.00 0.00 0.00 62 1013.5
20211026035008 21 51 0.0 1.6 0.00 0.00 0.00 62 1013.5
20211026033032 21 51 0.0 0.0 0.00 0.00 0.00 61 1013.5
20211026032504 22 51 0.0 0.0 0.00 0.00 0.00 61 1013.4
20211026030516 22 51 0.0 3.2 0.00 0.00 0.00 61 1013.4
20211026024013 22 51 0.0 4.8 0.00 0.00 0.00 60 1013.3
20211026023507 22 51 0.0 4.8 0.00 0.00 0.00 60 1013.2
20211026021558 22 52 0.0 4.8 0.00 0.00 0.00 60 1013.2
20211026021009 22 53 0.0 6.4 0.00 0.00 0.00 60 1013.2
20211026015528 23 54 0.0 4.8 0.00 0.00 0.00 59 1013.2
20211026015110 23 53 0.0 4.8 0.00 0.00 0.00 59 1013.2
20211026014532 23 53 0.0 4.8 0.00 0.00 0.00 59 1013.2
20211026012521 23 53 0.0 3.2 0.00 0.00 0.00 56 1013.2
20211026012011 23 53 0.0 3.2 0.00 0.00 0.00 56 1013.2
20211026010035 24 53 0.0 1.6 0.00 0.00 0.00 53 1013.1
20211026005513 24 53 0.0 1.6 0.00 0.00 0.00 53 1013.0
20211026005004 24 53 0.0 1.6 0.00 0.00 0.00 53 1013.0
20211026003021 25 53 0.0 3.2 0.00 0.00 0.00 51 1012.8
20211026002510 25 53 0.0 1.6 0.00 0.00 0.00 51 1012.8
20211025235517 26 53 0.0 4.8 0.00 0.00 0.00 48 1012.5
20211025234519 26 55 0.0 3.2 0.00 0.00 0.00 48 1012.5
20211025230523 27 53 0.0 3.2 0.00 0.00 0.00 45 1012.3
20211025222008 27 160 1.6 8.0 0.00 0.00 0.00 45 1012.3
20211025221035 27 55 1.6 8.0 0.00 0.00 0.00 44 1012.3
20211025215026 28 57 0.0 9.7 0.00 0.00 0.00 43 1012.4
20211025214029 28 41 1.6 9.7 0.00 0.00 0.00 43 1012.5
20211025211514 28 151 0.0 9.7 0.00 0.00 0.00 42 1012.6
20211025210507 28 65 1.6 11.3 0.00 0.00 0.00 40 1012.7
20211025205510 28 54 1.6 6.4 0.00 0.00 0.00 40 1012.8
20211025203528 29 157 1.6 8.0 0.00 0.00 0.00 38 1012.8
20211025200015 31 29 3.2 17.7 0.00 0.00 0.00 36 1013.0
20211025195011 31 46 0.0 12.9 0.00 0.00 0.00 34 1013.1
20211025194036 32 42 1.6 11.3 0.00 0.00 0.00 32 1013.2
20211025193024 32 196 1.6 12.9 0.00 0.00 0.00 34 1013.3
20211025185526 33 54 0.0 6.4 0.00 0.00 0.00 34 1013.6